| time (UTC) | temp C | wind direction | speed KPH | gust KPH | rain 1hr cm | rain 24hr cm | rain mn cm | humidity % | barometer mb |
| 20260506033037 | 17 | 248 | 0.0 | 0.0 | 0.00 | 0.00 | 0.00 | 92 | 938.0 |
| 20260506032527 | 16 | 248 | 0.0 | 0.0 | 0.00 | 0.00 | 0.00 | 92 | 938.1 |
| 20260506032018 | 17 | 248 | 0.0 | 0.0 | 0.00 | 0.00 | 0.00 | 92 | 938.1 |
| 20260506031730 | 17 | 248 | 0.0 | 0.0 | 0.00 | 0.00 | 0.00 | 91 | 937.8 |
| 20260506030957 | 17 | 248 | 0.0 | 0.0 | 0.00 | 0.00 | 0.00 | 91 | 938.2 |
| 20260506030447 | 17 | 248 | 0.0 | 0.0 | 0.00 | 0.00 | 0.00 | 91 | 938.4 |
| 20260506025937 | 17 | 248 | 0.0 | 0.0 | 0.00 | 0.00 | 0.00 | 91 | 938.2 |
| 20260506025427 | 17 | 248 | 0.0 | 0.0 | 0.00 | 0.00 | 0.00 | 90 | 938.3 |
| 20260506024917 | 17 | 248 | 0.0 | 0.0 | 0.00 | 0.00 | 0.00 | 91 | 938.3 |
| 20260506024637 | 17 | 248 | 0.0 | 0.0 | 0.00 | 0.00 | 0.00 | 90 | 938.1 |
| 20260506023856 | 17 | 248 | 0.0 | 0.0 | 0.00 | 0.00 | 0.00 | 90 | 938.7 |
| 20260506023346 | 17 | 248 | 0.0 | 0.0 | 0.00 | 0.00 | 0.00 | 89 | 938.3 |
| 20260506022836 | 17 | 248 | 0.0 | 0.0 | 0.00 | 0.00 | 0.00 | 89 | 938.3 |
| 20260506022326 | 17 | 248 | 0.0 | 0.0 | 0.00 | 0.00 | 0.00 | 89 | 938.5 |
| 20260506022046 | 18 | 248 | 0.0 | 0.0 | 0.00 | 0.00 | 0.00 | 88 | 938.4 |
| 20260506021306 | 18 | 248 | 0.0 | 0.0 | 0.00 | 0.00 | 0.00 | 88 | 938.5 |
| 20260506020756 | 18 | 248 | 0.0 | 0.0 | 0.00 | 0.00 | 0.00 | 87 | 938.5 |
| 20260506020245 | 18 | 248 | 0.0 | 0.0 | 0.00 | 0.00 | 0.00 | 86 | 938.5 |
| 20260506015735 | 18 | 248 | 0.0 | 0.0 | 0.00 | 0.00 | 0.00 | 85 | 938.5 |
| 20260506015225 | 18 | 248 | 0.0 | 0.0 | 0.00 | 0.00 | 0.00 | 84 | 938.4 |
| 20260506014715 | 18 | 248 | 0.0 | 0.0 | 0.00 | 0.00 | 0.00 | 83 | 938.6 |
| 20260506014205 | 18 | 248 | 0.0 | 0.0 | 0.00 | 0.00 | 0.00 | 84 | 938.8 |
| 20260506013655 | 18 | 248 | 0.0 | 0.0 | 0.00 | 0.00 | 0.00 | 83 | 938.7 |
| 20260506013145 | 18 | 248 | 0.0 | 0.0 | 0.00 | 0.00 | 0.00 | 83 | 938.8 |
| 20260506012635 | 19 | 248 | 0.0 | 0.0 | 0.00 | 0.00 | 0.00 | 82 | 938.7 |
| 20260506012124 | 19 | 248 | 0.0 | 0.0 | 0.00 | 0.00 | 0.00 | 81 | 938.8 |
| 20260506011614 | 19 | 248 | 0.0 | 3.2 | 0.00 | 0.00 | 0.00 | 81 | 938.9 |
| 20260506011104 | 19 | 248 | 0.0 | 3.2 | 0.00 | 0.00 | 0.00 | 80 | 938.9 |
| 20260506010554 | 19 | 248 | 0.0 | 0.0 | 0.00 | 0.00 | 0.00 | 82 | 938.8 |
| 20260506010304 | 19 | 248 | 0.0 | 3.2 | 0.00 | 0.00 | 0.00 | 82 | 939.0 |
| 20260506005534 | 18 | 248 | 0.0 | 6.4 | 0.00 | 0.00 | 0.00 | 83 | 939.1 |
| 20260506005025 | 18 | 225 | 1.6 | 9.7 | 0.00 | 0.00 | 0.00 | 82 | 938.9 |
| 20260506004514 | 18 | 225 | 4.8 | 9.7 | 0.00 | 0.00 | 0.00 | 82 | 939.0 |
| 20260506004003 | 19 | 203 | 6.4 | 9.7 | 0.00 | 0.00 | 0.00 | 83 | 938.7 |
| 20260506003453 | 19 | 158 | 6.4 | 9.7 | 0.00 | 0.00 | 0.00 | 83 | 939.1 |
| 20260506002944 | 19 | 158 | 6.4 | 9.7 | 0.00 | 0.00 | 0.00 | 83 | 939.0 |
| 20260506002650 | 19 | 113 | 4.8 | 6.4 | 0.00 | 0.00 | 0.00 | 82 | 939.0 |
| 20260506001923 | 19 | 113 | 0.0 | 6.4 | 0.00 | 0.00 | 0.00 | 83 | 939.2 |
| 20260506001414 | 19 | 113 | 3.2 | 3.2 | 0.00 | 0.00 | 0.00 | 83 | 939.0 |
| 20260506000903 | 20 | 113 | 0.0 | 3.2 | 0.00 | 0.00 | 0.00 | 82 | 939.1 |
| 20260506000619 | 19 | 113 | 3.2 | 6.4 | 0.00 | 0.00 | 0.00 | 82 | 939.0 |
| 20260505235843 | 19 | 113 | 1.6 | 6.4 | 0.00 | 0.00 | 0.00 | 81 | 938.9 |
| 20260505235332 | 19 | 113 | 4.8 | 6.4 | 0.00 | 0.00 | 0.00 | 81 | 939.0 |
| 20260505234822 | 19 | 113 | 3.2 | 6.4 | 0.00 | 0.00 | 0.00 | 82 | 938.7 |
| 20260505234313 | 19 | 90 | 4.8 | 9.7 | 0.00 | 0.00 | 0.00 | 81 | 938.6 |
| 20260505233802 | 19 | 90 | 4.8 | 9.7 | 0.00 | 0.00 | 0.00 | 81 | 938.8 |
| 20260505233252 | 19 | 113 | 6.4 | 9.7 | 0.00 | 0.00 | 0.00 | 81 | 938.8 |
| 20260505233001 | 19 | 113 | 1.6 | 6.4 | 0.00 | 0.00 | 0.00 | 80 | 938.7 |
| 20260505232232 | 19 | 113 | 1.6 | 6.4 | 0.00 | 0.00 | 0.00 | 80 | 938.6 |
| 20260505231942 | 19 | 113 | 3.2 | 6.4 | 0.00 | 0.00 | 0.00 | 80 | 938.6 |
| 20260505231216 | 19 | 113 | 0.0 | 6.4 | 0.00 | 0.00 | 0.00 | 80 | 938.5 |
| 20260505230701 | 19 | 113 | 3.2 | 9.7 | 0.00 | 0.00 | 0.00 | 79 | 938.4 |
| 20260505230151 | 20 | 113 | 3.2 | 9.7 | 0.00 | 0.00 | 0.00 | 79 | 938.2 |
| 20260505225641 | 20 | 90 | 3.2 | 9.7 | 0.00 | 0.00 | 0.00 | 79 | 937.9 |
| 20260505225131 | 20 | 90 | 1.6 | 11.3 | 0.00 | 0.00 | 0.00 | 79 | 938.1 |
| 20260505224621 | 20 | 90 | 3.2 | 11.3 | 0.00 | 0.00 | 0.00 | 78 | 938.0 |
| 20260505224111 | 20 | 113 | 8.0 | 11.3 | 0.00 | 0.00 | 0.00 | 77 | 937.8 |
| 20260505223601 | 20 | 113 | 6.4 | 6.4 | 0.00 | 0.00 | 0.00 | 77 | 937.8 |
| 20260505223051 | 20 | 113 | 0.0 | 9.7 | 0.00 | 0.00 | 0.00 | 76 | 937.9 |
| 20260505222541 | 20 | 113 | 3.2 | 9.7 | 0.00 | 0.00 | 0.00 | 74 | 938.0 |
| 20260505222031 | 20 | 90 | 6.4 | 11.3 | 0.00 | 0.00 | 0.00 | 73 | 937.9 |
| 20260505221521 | 20 | 113 | 8.0 | 12.9 | 0.00 | 0.00 | 0.00 | 72 | 937.8 |
| 20260505221010 | 21 | 113 | 8.0 | 17.7 | 0.00 | 0.00 | 0.00 | 71 | 937.7 |
| 20260505220500 | 21 | 113 | 11.3 | 17.7 | 0.00 | 0.00 | 0.00 | 70 | 937.6 |
| 20260505215950 | 21 | 90 | 6.4 | 6.4 | 0.00 | 0.00 | 0.00 | 71 | 937.6 |
| 20260505215440 | 21 | 90 | 3.2 | 6.4 | 0.00 | 0.00 | 0.00 | 70 | 937.7 |
| 20260505214930 | 21 | 90 | 3.2 | 6.4 | 0.00 | 0.00 | 0.00 | 70 | 937.3 |
| 20260505214639 | 21 | 113 | 4.8 | 6.4 | 0.00 | 0.00 | 0.00 | 69 | 937.5 |
| 20260505213911 | 21 | 113 | 3.2 | 6.4 | 0.00 | 0.00 | 0.00 | 68 | 937.4 |
| 20260505213400 | 22 | 135 | 3.2 | 11.3 | 0.00 | 0.00 | 0.00 | 67 | 937.3 |
| 20260505212849 | 22 | 113 | 3.2 | 11.3 | 0.00 | 0.00 | 0.00 | 67 | 937.3 |
| 20260505212339 | 22 | 113 | 6.4 | 11.3 | 0.00 | 0.00 | 0.00 | 65 | 936.9 |
| 20260505212050 | 22 | 135 | 6.4 | 11.3 | 0.00 | 0.00 | 0.00 | 63 | 937.2 |
| 20260505211319 | 23 | 135 | 4.8 | 6.4 | 0.00 | 0.00 | 0.00 | 60 | 937.2 |
| 20260505210809 | 23 | 135 | 3.2 | 9.7 | 0.00 | 0.00 | 0.00 | 60 | 937.3 |
| 20260505210259 | 23 | 158 | 6.4 | 9.7 | 0.00 | 0.00 | 0.00 | 59 | 937.1 |
| 20260505205749 | 23 | 135 | 4.8 | 11.3 | 0.00 | 0.00 | 0.00 | 58 | 937.0 |
| 20260505205239 | 23 | 135 | 6.4 | 11.3 | 0.00 | 0.00 | 0.00 | 59 | 936.8 |
| 20260505204728 | 23 | 135 | 6.4 | 11.3 | 0.00 | 0.00 | 0.00 | 59 | 936.9 |
| 20260505204218 | 23 | 135 | 6.4 | 11.3 | 0.00 | 0.00 | 0.00 | 58 | 936.9 |
| 20260505203708 | 23 | 113 | 6.4 | 11.3 | 0.00 | 0.00 | 0.00 | 58 | 937.0 |
| 20260505203158 | 23 | 113 | 4.8 | 11.3 | 0.00 | 0.00 | 0.00 | 59 | 937.1 |
| 20260505202648 | 23 | 90 | 9.7 | 12.9 | 0.00 | 0.00 | 0.00 | 59 | 936.9 |
| 20260505202139 | 23 | 113 | 9.7 | 12.9 | 0.00 | 0.00 | 0.00 | 59 | 937.1 |
| 20260505201628 | 24 | 90 | 4.8 | 9.7 | 0.00 | 0.00 | 0.00 | 60 | 936.9 |
| 20260505201336 | 24 | 90 | 3.2 | 9.7 | 0.00 | 0.00 | 0.00 | 58 | 936.9 |
| 20260505200607 | 24 | 113 | 4.8 | 9.7 | 0.00 | 0.00 | 0.00 | 59 | 937.0 |
| 20260505200314 | 24 | 68 | 4.8 | 12.9 | 0.00 | 0.00 | 0.00 | 58 | 937.0 |
| 20260505195548 | 24 | 113 | 3.2 | 12.9 | 0.00 | 0.00 | 0.00 | 60 | 937.0 |
| 20260505195038 | 24 | 90 | 8.0 | 11.3 | 0.00 | 0.00 | 0.00 | 58 | 936.9 |
| 20260505194528 | 24 | 68 | 3.2 | 12.9 | 0.00 | 0.00 | 0.00 | 58 | 936.9 |
| 20260505194017 | 24 | 113 | 8.0 | 12.9 | 0.00 | 0.00 | 0.00 | 59 | 937.0 |
| 20260505193507 | 24 | 68 | 6.4 | 11.3 | 0.00 | 0.00 | 0.00 | 58 | 936.8 |
| 20260505192956 | 25 | 90 | 4.8 | 11.3 | 0.00 | 0.00 | 0.00 | 59 | 936.8 |
| 20260505192704 | 24 | 90 | 4.8 | 12.9 | 0.00 | 0.00 | 0.00 | 58 | 936.8 |
| 20260505192200 | 24 | 113 | 6.4 | 12.9 | 0.00 | 0.00 | 0.00 | 59 | 936.7 |
| 20260505191426 | 24 | 90 | 6.4 | 11.3 | 0.00 | 0.00 | 0.00 | 59 | 936.6 |
| 20260505190916 | 24 | 45 | 4.8 | 9.7 | 0.00 | 0.00 | 0.00 | 59 | 936.8 |
| 20260505190637 | 24 | 68 | 3.2 | 9.7 | 0.00 | 0.00 | 0.00 | 59 | 936.9 |
| 20260505185856 | 24 | 23 | 3.2 | 6.4 | 0.00 | 0.00 | 0.00 | 61 | 936.8 |
| 20260505185828 | 23 | 0 | 4.8 | 6.4 | 0.00 | 0.00 | 0.00 | 59 | 937.1 |
| 20260505184836 | 23 | 0 | 4.8 | 6.4 | 0.00 | 0.00 | 0.00 | 59 | 936.7 |
| 20260505184548 | 23 | 0 | 4.8 | 6.4 | 0.00 | 0.00 | 0.00 | 59 | 936.9 |
| 20260505183816 | 24 | 0 | 4.8 | 6.4 | 0.00 | 0.00 | 0.00 | 59 | 937.0 |
| 20260505183305 | 24 | 0 | 3.2 | 6.4 | 0.00 | 0.00 | 0.00 | 58 | 936.9 |
| 20260505182756 | 23 | 338 | 4.8 | 6.4 | 0.00 | 0.00 | 0.00 | 58 | 936.8 |
| 20260505182246 | 24 | 338 | 6.4 | 6.4 | 0.00 | 0.00 | 0.00 | 57 | 936.8 |
| 20260505181736 | 25 | 338 | 1.6 | 3.2 | 0.00 | 0.00 | 0.00 | 54 | 936.8 |
| 20260505181225 | 25 | 338 | 3.2 | 3.2 | 0.00 | 0.00 | 0.00 | 51 | 936.6 |
| 20260505180715 | 24 | 338 | 3.2 | 3.2 | 0.00 | 0.00 | 0.00 | 52 | 936.8 |
| 20260505180204 | 23 | 338 | 3.2 | 3.2 | 0.00 | 0.00 | 0.00 | 51 | 937.0 |
| 20260505175655 | 23 | 338 | 3.2 | 6.4 | 0.00 | 0.00 | 0.00 | 51 | 937.0 |
| 20260505175145 | 23 | 338 | 3.2 | 6.4 | 0.00 | 0.00 | 0.00 | 60 | 936.8 |
| 20260505174635 | 23 | 0 | 4.8 | 6.4 | 0.00 | 0.00 | 0.00 | 60 | 936.9 |
| 20260505174125 | 22 | 293 | 3.2 | 6.4 | 0.00 | 0.00 | 0.00 | 59 | 937.0 |
| 20260505173615 | 22 | 270 | 6.4 | 9.7 | 0.00 | 0.00 | 0.00 | 56 | 936.8 |
| 20260505173330 | 22 | 248 | 6.4 | 9.7 | 0.00 | 0.00 | 0.00 | 64 | 937.0 |
| 20260505172815 | 22 | 248 | 8.0 | 9.7 | 0.00 | 0.00 | 0.00 | 63 | 937.2 |
| 20260505172044 | 22 | 315 | 8.0 | 9.7 | 0.00 | 0.00 | 0.00 | 64 | 937.1 |
| 20260505171757 | 22 | 315 | 6.4 | 6.4 | 0.00 | 0.00 | 0.00 | 65 | 937.1 |
| 20260505171024 | 22 | 315 | 6.4 | 6.4 | 0.00 | 0.00 | 0.00 | 68 | 937.1 |
| 20260505170514 | 22 | 315 | 6.4 | 6.4 | 0.00 | 0.00 | 0.00 | 61 | 937.2 |
| 20260505170003 | 21 | 315 | 6.4 | 6.4 | 0.00 | 0.00 | 0.00 | 67 | 937.0 |
| 20260505165453 | 21 | 315 | 4.8 | 6.4 | 0.00 | 0.00 | 0.00 | 60 | 937.2 |
| 20260505164944 | 21 | 315 | 0.0 | 0.0 | 0.00 | 0.00 | 0.00 | 62 | 937.2 |
| 20260505164434 | 21 | 315 | 0.0 | 0.0 | 0.00 | 0.00 | 0.00 | 62 | 937.3 |
| 20260505163923 | 21 | 315 | 0.0 | 0.0 | 0.00 | 0.00 | 0.00 | 64 | 937.4 |
| 20260505163414 | 21 | 315 | 0.0 | 0.0 | 0.00 | 0.00 | 0.00 | 66 | 937.3 |
| 20260505162903 | 21 | 315 | 0.0 | 0.0 | 0.00 | 0.00 | 0.00 | 66 | 937.3 |
| 20260505162613 | 21 | 315 | 0.0 | 0.0 | 0.00 | 0.00 | 0.00 | 67 | 937.2 |
| 20260505161843 | 21 | 315 | 0.0 | 0.0 | 0.00 | 0.00 | 0.00 | 65 | 937.4 |
| 20260505161333 | 20 | 315 | 0.0 | 0.0 | 0.00 | 0.00 | 0.00 | 70 | 937.5 |
| 20260505160823 | 20 | 315 | 0.0 | 0.0 | 0.00 | 0.00 | 0.00 | 69 | 937.8 |
| 20260505160312 | 20 | 315 | 0.0 | 3.2 | 0.00 | 0.00 | 0.00 | 68 | 937.8 |
| 20260505153211 | 19 | 315 | 0.0 | 0.0 | 0.00 | 0.00 | 0.00 | 72 | 938.1 |
| 20260505152701 | 19 | 0 | 0.0 | 0.0 | 0.00 | 0.00 | 0.00 | 74 | 938.0 |
| 20260505152151 | 20 | 0 | 0.0 | 0.0 | 0.00 | 0.00 | 0.00 | 69 | 938.0 |
| 20260505151641 | 20 | 0 | 0.0 | 3.2 | 0.00 | 0.00 | 0.00 | 70 | 938.4 |
| 20260505151131 | 20 | 315 | 0.0 | 6.4 | 0.00 | 0.00 | 0.00 | 73 | 938.3 |
| 20260505150621 | 18 | 315 | 3.2 | 6.4 | 0.00 | 0.00 | 0.00 | 75 | 938.3 |
| 20260505150112 | 18 | 338 | 6.4 | 6.4 | 0.00 | 0.00 | 0.00 | 76 | 938.4 |
| 20260505140420 | 17 | 0 | 6.4 | 6.4 | 0.00 | 0.00 | 0.00 | 76 | 938.6 |
| 20260505130219 | 17 | 293 | 0.0 | 6.4 | 0.00 | 0.00 | 0.00 | 73 | 938.6 |
| 20260505124648 | 15 | 270 | 3.2 | 3.2 | 0.00 | 0.00 | 0.00 | 77 | 938.7 |
| 20260505124138 | 16 | 248 | 3.2 | 3.2 | 0.00 | 0.00 | 0.00 | 73 | 938.7 |
| 20260505123628 | 16 | 248 | 0.0 | 3.2 | 0.00 | 0.00 | 0.00 | 73 | 938.7 |
| 20260505123118 | 17 | 225 | 1.6 | 3.2 | 0.00 | 0.00 | 0.00 | 70 | 938.7 |
| 20260505122608 | 17 | 225 | 0.0 | 3.2 | 0.00 | 0.00 | 0.00 | 69 | 938.5 |
| 20260505122057 | 15 | 225 | 0.0 | 3.2 | 0.00 | 0.00 | 0.00 | 76 | 938.4 |
| 20260505121806 | 17 | 225 | 0.0 | 3.2 | 0.00 | 0.00 | 0.00 | 71 | 938.3 |
| 20260505121037 | 16 | 225 | 0.0 | 3.2 | 0.00 | 0.00 | 0.00 | 73 | 938.4 |
| 20260505121012 | 16 | 158 | 0.0 | 9.7 | 0.00 | 0.00 | 0.00 | 71 | 938.2 |
| 20260505120016 | 15 | 158 | 0.0 | 11.3 | 0.00 | 0.00 | 0.00 | 77 | 938.1 |
| 20260505115506 | 13 | 158 | 8.0 | 11.3 | 0.00 | 0.00 | 0.00 | 85 | 938.0 |
| 20260505115216 | 12 | 225 | 1.6 | 6.4 | 0.00 | 0.00 | 0.00 | 85 | 937.9 |
| 20260505114447 | 12 | 203 | 6.4 | 6.4 | 0.00 | 0.00 | 0.00 | 86 | 937.7 |
| 20260505113937 | 12 | 203 | 0.0 | 6.4 | 0.00 | 0.00 | 0.00 | 86 | 937.8 |
| 20260505113426 | 12 | 203 | 3.2 | 6.4 | 0.00 | 0.00 | 0.00 | 88 | 937.6 |
| 20260505113139 | 12 | 203 | 4.8 | 9.7 | 0.00 | 0.00 | 0.00 | 89 | 937.6 |
| 20260505112406 | 12 | 225 | 0.0 | 9.7 | 0.00 | 0.00 | 0.00 | 89 | 937.8 |
| 20260505111856 | 12 | 225 | 6.4 | 9.7 | 0.00 | 0.00 | 0.00 | 88 | 937.5 |
| 20260505111606 | 12 | 203 | 6.4 | 12.9 | 0.00 | 0.00 | 0.00 | 90 | 937.5 |
| 20260505110835 | 12 | 203 | 3.2 | 12.9 | 0.00 | 0.00 | 0.00 | 89 | 937.4 |
| 20260505110326 | 12 | 203 | 8.0 | 11.3 | 0.00 | 0.00 | 0.00 | 89 | 937.3 |
| 20260505102205 | 11 | 225 | 8.0 | 11.3 | 0.00 | 0.00 | 0.00 | 88 | 936.6 |
| 20260505101654 | 12 | 225 | 9.7 | 11.3 | 0.00 | 0.00 | 0.00 | 88 | 936.5 |
| 20260505101145 | 12 | 225 | 8.0 | 11.3 | 0.00 | 0.00 | 0.00 | 88 | 936.6 |
| 20260505100635 | 12 | 203 | 6.4 | 9.7 | 0.00 | 0.00 | 0.00 | 88 | 936.6 |
| 20260505100124 | 12 | 158 | 3.2 | 9.7 | 0.00 | 0.00 | 0.00 | 88 | 936.5 |
| 20260505095614 | 12 | 135 | 4.8 | 9.7 | 0.00 | 0.00 | 0.00 | 88 | 936.4 |
| 20260505095101 | 12 | 180 | 6.4 | 11.3 | 0.00 | 0.00 | 0.00 | 88 | 936.4 |
| 20260505094553 | 12 | 180 | 6.4 | 11.3 | 0.00 | 0.00 | 0.00 | 88 | 936.6 |
| 20260505094533 | 12 | 180 | 3.2 | 11.3 | 0.00 | 0.00 | 0.00 | 88 | 936.5 |
| 20260505093756 | 12 | 225 | 6.4 | 11.3 | 0.00 | 0.00 | 0.00 | 87 | 936.3 |
| 20260505093031 | 12 | 225 | 0.0 | 6.4 | 0.00 | 0.00 | 0.00 | 87 | 936.4 |
| 20260505092514 | 12 | 135 | 1.6 | 12.9 | 0.00 | 0.00 | 0.00 | 87 | 936.4 |
| 20260505092225 | 12 | 180 | 4.8 | 14.5 | 0.00 | 0.00 | 0.00 | 88 | 936.1 |
| 20260505091453 | 12 | 225 | 11.3 | 14.5 | 0.00 | 0.00 | 0.00 | 87 | 936.3 |
| 20260505090944 | 12 | 225 | 12.9 | 17.7 | 0.00 | 0.00 | 0.00 | 89 | 936.2 |
| 20260505090433 | 12 | 225 | 12.9 | 17.7 | 0.00 | 0.00 | 0.00 | 87 | 935.9 |
| 20260505085923 | 12 | 248 | 12.9 | 17.7 | 0.00 | 0.00 | 0.00 | 89 | 936.3 |
| 20260505085413 | 12 | 248 | 12.9 | 17.7 | 0.00 | 0.00 | 0.00 | 88 | 936.3 |
| 20260505084903 | 13 | 225 | 16.1 | 17.7 | 0.00 | 0.00 | 0.00 | 89 | 935.9 |
| 20260505084353 | 13 | 248 | 12.9 | 17.7 | 0.00 | 0.00 | 0.00 | 87 | 936.0 |
| 20260505083842 | 13 | 225 | 12.9 | 14.5 | 0.00 | 0.00 | 0.00 | 87 | 936.0 |
| 20260505083333 | 13 | 203 | 4.8 | 12.9 | 0.00 | 0.00 | 0.00 | 87 | 935.9 |
| 20260505082822 | 13 | 203 | 8.0 | 17.7 | 0.00 | 0.00 | 0.00 | 87 | 935.7 |
| 20260505082312 | 13 | 248 | 12.9 | 20.9 | 0.00 | 0.00 | 0.00 | 89 | 936.0 |
| 20260505081803 | 13 | 225 | 11.3 | 20.9 | 0.00 | 0.00 | 0.00 | 88 | 936.1 |
| 20260505081251 | 13 | 225 | 12.9 | 20.9 | 0.00 | 0.00 | 0.00 | 87 | 936.0 |
| 20260505080741 | 13 | 225 | 16.1 | 24.1 | 0.00 | 0.00 | 0.00 | 87 | 936.0 |
| 20260505080232 | 13 | 225 | 16.1 | 24.1 | 0.00 | 0.00 | 0.00 | 85 | 935.6 |
| 20260505075722 | 14 | 248 | 11.3 | 29.0 | 0.00 | 0.00 | 0.00 | 85 | 935.9 |
| 20260505075211 | 18 | 315 | 20.9 | 29.0 | 0.00 | 0.00 | 0.00 | 75 | 935.6 |
| 20260505074921 | 18 | 338 | 20.9 | 27.4 | 0.00 | 0.00 | 0.00 | 75 | 935.7 |
| 20260505074725 | 18 | 338 | 20.9 | 27.4 | 0.00 | 0.00 | 0.00 | 75 | 935.7 |
| 20260505074151 | 18 | 0 | 17.7 | 24.1 | 0.00 | 0.00 | 0.00 | 76 | 935.6 |
| 20260505073641 | 18 | 338 | 16.1 | 25.7 | 0.00 | 0.00 | 0.00 | 75 | 935.6 |
| 20260505073131 | 18 | 0 | 17.7 | 25.7 | 0.00 | 0.00 | 0.00 | 75 | 935.5 |
| 20260505072621 | 18 | 0 | 19.3 | 27.4 | 0.00 | 0.00 | 0.00 | 74 | 935.6 |
| 20260505072110 | 18 | 0 | 22.5 | 27.4 | 0.00 | 0.00 | 0.00 | 76 | 935.6 |
| 20260505071600 | 18 | 0 | 17.7 | 29.0 | 0.00 | 0.00 | 0.00 | 76 | 935.8 |
| 20260505071050 | 18 | 0 | 20.9 | 32.2 | 0.00 | 0.00 | 0.00 | 75 | 935.7 |
| 20260505070540 | 18 | 0 | 19.3 | 32.2 | 0.00 | 0.00 | 0.00 | 75 | 935.8 |
| 20260505070030 | 18 | 0 | 24.1 | 29.0 | 0.00 | 0.00 | 0.00 | 75 | 936.0 |
| 20260505065520 | 18 | 0 | 22.5 | 33.8 | 0.00 | 0.00 | 0.00 | 76 | 935.8 |
| 20260505065010 | 18 | 338 | 24.1 | 37.0 | 0.00 | 0.00 | 0.00 | 75 | 935.7 |
| 20260505064500 | 18 | 338 | 24.1 | 40.2 | 0.00 | 0.00 | 0.00 | 77 | 935.5 |
| 20260505063950 | 18 | 338 | 27.4 | 40.2 | 0.00 | 0.00 | 0.00 | 77 | 935.8 |
| 20260505063440 | 18 | 0 | 27.4 | 37.0 | 0.00 | 0.00 | 0.00 | 75 | 935.7 |
| 20260505062930 | 18 | 0 | 27.4 | 35.4 | 0.00 | 0.00 | 0.00 | 76 | 935.8 |
| 20260505062641 | 18 | 0 | 25.7 | 33.8 | 0.00 | 0.00 | 0.00 | 76 | 935.8 |
| 20260505061909 | 18 | 0 | 24.1 | 32.2 | 0.00 | 0.00 | 0.00 | 76 | 935.8 |
| 20260505061621 | 18 | 338 | 16.1 | 29.0 | 0.00 | 0.00 | 0.00 | 76 | 936.0 |
| 20260505060850 | 18 | 338 | 17.7 | 29.0 | 0.00 | 0.00 | 0.00 | 77 | 936.2 |
| 20260505060340 | 18 | 338 | 24.1 | 29.0 | 0.00 | 0.00 | 0.00 | 76 | 936.1 |
| 20260505055829 | 18 | 0 | 24.1 | 29.0 | 0.00 | 0.00 | 0.00 | 77 | 936.1 |
| 20260505055518 | 18 | 0 | 24.1 | 35.4 | 0.00 | 0.00 | 0.00 | 76 | 936.0 |
| 20260505055509 | 18 | 338 | 24.1 | 33.8 | 0.00 | 0.00 | 0.00 | 76 | 936.1 |
| 20260505054258 | 18 | 0 | 24.1 | 35.4 | 0.00 | 0.00 | 0.00 | 76 | 936.1 |
| 20260505053748 | 18 | 0 | 17.7 | 27.4 | 0.00 | 0.00 | 0.00 | 77 | 936.0 |
| 20260505053238 | 18 | 338 | 19.3 | 37.0 | 0.00 | 0.00 | 0.00 | 75 | 936.3 |
| 20260505052729 | 18 | 338 | 22.5 | 37.0 | 0.00 | 0.00 | 0.00 | 76 | 936.3 |
| 20260505052219 | 18 | 338 | 17.7 | 35.4 | 0.00 | 0.00 | 0.00 | 76 | 936.2 |
| 20260505051707 | 18 | 0 | 19.3 | 32.2 | 0.00 | 0.00 | 0.00 | 77 | 936.4 |
| 20260505051158 | 18 | 0 | 17.7 | 35.4 | 0.00 | 0.00 | 0.00 | 76 | 936.5 |
| 20260505050648 | 18 | 0 | 24.1 | 35.4 | 0.00 | 0.00 | 0.00 | 76 | 936.4 |
| 20260505050138 | 18 | 0 | 27.4 | 35.4 | 0.00 | 0.00 | 0.00 | 75 | 936.4 |
| 20260505040956 | 18 | 338 | 24.1 | 33.8 | 0.00 | 0.00 | 0.00 | 75 | 936.6 |
| 20260505040447 | 18 | 0 | 17.7 | 29.0 | 0.00 | 0.00 | 0.00 | 76 | 936.6 |
| 20260505040157 | 18 | 338 | 22.5 | 25.7 | 0.00 | 0.00 | 0.00 | 77 | 936.6 |
| 20260505035426 | 18 | 0 | 17.7 | 29.0 | 0.00 | 0.00 | 0.00 | 77 | 936.5 |
| 20260505034916 | 18 | 0 | 17.7 | 37.0 | 0.00 | 0.00 | 0.00 | 78 | 936.5 |
| 20260505034406 | 18 | 0 | 22.5 | 37.0 | 0.00 | 0.00 | 0.00 | 77 | 936.6 |
| 20260505034124 | 18 | 0 | 24.1 | 32.2 | 0.00 | 0.00 | 0.00 | 78 | 936.4 |
| 20260505033345 | 18 | 0 | 24.1 | 33.8 | 0.00 | 0.00 | 0.00 | 77 | 936.3 |